Погода в Хомутовской

Россия / Ростовская область     47°02′38″N   40°03′53″E
темп.,
°C
ветер,
м/с
пор.,
м/с
влажн.,
%
обл.,
%
осадки,
мм/ч
давл.,
гПа
погр.,
м
29 июля, чт
чт2900:00+23з11545 0.0 101511
03:00+22сз22580 0.0 101512
06:00+22з11605 0.0 101511
09:00+28зюз11395 0.0 1014488
12:00+32ююз33240 0.0 10132626
15:00+33юз32220 0.0 10122761
18:00+32з22240 0.0 10112097
21:00+25сз33400 0.0 101142
30 июля, пт
пт3000:00+24вюв224011 0.0 101112
03:00+22юз224666 0.0 101112
06:00+22юз224941 0.0 101129
09:00+29ююз35344 0.0 1011611
12:00+31зюз353082 0.0 10111154
15:00+35юз24207 0.0 10093017
18:00+33зсз44293 0.0 1008905
21:00+26сз34524 0.0 100963
31 июля, сб
сб3100:00+24с11540 0.0 100911
03:00+23з22630 0.0 100918
06:00+23всв11650 0.0 100911
09:00+29сз11435 0.0 1010527
12:00+33зсз223191 0.0 10091765
15:00+35зсз432951 0.0 10082756
18:00+33з54335 0.0 10091071
21:00+27ссз365013 0.0 1009102
1 августа, вс
вс100:00+25св335829 0.0 101042
03:00+24св35553 0.0 100977
06:00+24в22512 0.0 101030
09:00+32в23261 0.0 1010507
12:00+36вюв34210 0.0 10093041
15:00+38всв33186 0.0 10083595
18:00+36св332037 0.0 10081374
21:00+31в232597 0.0 100952
2 августа, пн
пн200:00+30в3526100 0.0 100882
03:00+27вюв35309 0.0 100863
06:00+26юв3338100 0.0 100945
09:00+34юв3429100 0.0 1009561
12:00+38ю44155 0.0 10083487
15:00+39ююз23133 0.0 10074121
18:00+37з23185 0.0 10071881
21:00+28з23486 0.0 100822